| time (UTC) | temp F | wind direction | speed MPH | gust MPH | rain 1hr in | rain 24hr in | rain mn in | humidity % | barometer mb |
| 20260504044540 | 44 | 274 | 0.0 | 0.0 | 0.00 | 0.00 | 0.00 | 54 | 1013.2 |
| 20260504043037 | 45 | 274 | 0.0 | 0.0 | 0.00 | 0.00 | 0.00 | 54 | 1013.2 |
| 20260504041535 | 45 | 274 | 0.0 | 0.0 | 0.00 | 0.00 | 0.00 | 55 | 1012.9 |
| 20260504040056 | 45 | 274 | 0.0 | 0.0 | 0.00 | 0.00 | 0.00 | 56 | 1012.7 |
| 20260504034531 | 45 | 274 | 0.0 | 0.0 | 0.00 | 0.00 | 0.00 | 56 | 1012.7 |
| 20260504033034 | 46 | 274 | 0.0 | 0.0 | 0.00 | 0.00 | 0.00 | 56 | 1012.8 |
| 20260504031533 | 46 | 274 | 0.0 | 1.0 | 0.00 | 0.00 | 0.00 | 56 | 1012.7 |
| 20260504030030 | 47 | 274 | 0.0 | 0.0 | 0.00 | 0.00 | 0.00 | 54 | 1012.6 |
| 20260504024529 | 47 | 274 | 0.0 | 0.0 | 0.00 | 0.00 | 0.00 | 54 | 1012.6 |
| 20260504023029 | 47 | 274 | 0.0 | 0.0 | 0.00 | 0.00 | 0.00 | 55 | 1012.7 |
| 20260504021529 | 48 | 274 | 0.0 | 1.0 | 0.00 | 0.00 | 0.00 | 52 | 1012.7 |
| 20260504020030 | 49 | 274 | 0.0 | 0.0 | 0.00 | 0.00 | 0.00 | 51 | 1012.7 |
| 20260504014528 | 49 | 274 | 0.0 | 1.0 | 0.00 | 0.00 | 0.00 | 50 | 1012.7 |
| 20260504013027 | 50 | 274 | 0.0 | 0.0 | 0.00 | 0.00 | 0.00 | 49 | 1012.5 |
| 20260504011525 | 51 | 274 | 0.0 | 0.0 | 0.00 | 0.00 | 0.00 | 47 | 1012.4 |
| 20260504010028 | 52 | 274 | 0.0 | 0.0 | 0.00 | 0.00 | 0.00 | 46 | 1012.1 |
| 20260504004539 | 53 | 274 | 0.0 | 0.0 | 0.00 | 0.00 | 0.00 | 44 | 1012.0 |
| 20260504003025 | 54 | 274 | 0.0 | 0.0 | 0.00 | 0.00 | 0.00 | 40 | 1011.8 |
| 20260504001524 | 55 | 274 | 0.0 | 2.0 | 0.00 | 0.00 | 0.00 | 38 | 1011.6 |
| 20260504000024 | 56 | 292 | 0.0 | 3.0 | 0.00 | 0.00 | 0.00 | 36 | 1011.3 |
| 20260503234523 | 56 | 241 | 0.0 | 1.0 | 0.00 | 0.00 | 0.00 | 36 | 1011.1 |
| 20260503233023 | 57 | 261 | 0.0 | 0.0 | 0.00 | 0.00 | 0.00 | 34 | 1011.0 |
| 20260503231521 | 58 | 264 | 0.0 | 2.0 | 0.00 | 0.00 | 0.00 | 33 | 1010.8 |
| 20260503230021 | 58 | 6 | 0.0 | 3.0 | 0.00 | 0.00 | 0.00 | 32 | 1010.9 |
| 20260503224520 | 59 | 326 | 1.0 | 5.0 | 0.00 | 0.00 | 0.00 | 30 | 1010.7 |
| 20260503223019 | 60 | 44 | 0.0 | 4.0 | 0.00 | 0.00 | 0.00 | 30 | 1010.6 |
| 20260503221516 | 59 | 270 | 0.0 | 5.0 | 0.00 | 0.00 | 0.00 | 31 | 1010.6 |
| 20260503220015 | 59 | 305 | 0.0 | 4.0 | 0.00 | 0.00 | 0.00 | 30 | 1010.5 |
| 20260503214515 | 59 | 24 | 0.0 | 7.0 | 0.00 | 0.00 | 0.00 | 31 | 1010.6 |
| 20260503213018 | 58 | 333 | 0.0 | 3.0 | 0.00 | 0.00 | 0.00 | 29 | 1010.6 |
| 20260503211513 | 58 | 253 | 0.0 | 6.0 | 0.00 | 0.00 | 0.00 | 29 | 1010.6 |
| 20260503210012 | 58 | 311 | 0.0 | 6.0 | 0.00 | 0.00 | 0.00 | 30 | 1010.5 |
| 20260503204519 | 58 | 328 | 2.0 | 9.0 | 0.00 | 0.00 | 0.00 | 30 | 1010.4 |
| 20260503203014 | 59 | 259 | 1.0 | 6.0 | 0.00 | 0.00 | 0.00 | 30 | 1010.7 |
| 20260503201507 | 58 | 323 | 2.0 | 10.0 | 0.00 | 0.00 | 0.00 | 32 | 1010.7 |
| 20260503200009 | 59 | 261 | 2.0 | 10.0 | 0.00 | 0.00 | 0.00 | 32 | 1010.9 |
| 20260503194505 | 58 | 214 | 1.0 | 6.0 | 0.00 | 0.00 | 0.00 | 33 | 1011.1 |
| 20260503193002 | 57 | 11 | 1.0 | 7.0 | 0.00 | 0.00 | 0.00 | 33 | 1011.0 |
| 20260503191502 | 57 | 352 | 1.0 | 5.0 | 0.00 | 0.00 | 0.00 | 33 | 1011.2 |
| 20260503190106 | 57 | 321 | 0.0 | 4.0 | 0.00 | 0.00 | 0.00 | 34 | 1011.2 |
| 20260503184559 | 57 | 298 | 1.0 | 8.0 | 0.00 | 0.00 | 0.00 | 35 | 1011.4 |
| 20260503183115 | 56 | 250 | 1.0 | 19.0 | 0.00 | 0.00 | 0.00 | 35 | 1011.5 |
| 20260503183003 | 56 | 319 | 2.0 | 19.0 | 0.00 | 0.00 | 0.00 | 35 | 1011.4 |
| 20260503181619 | 55 | 231 | 1.0 | 8.0 | 0.00 | 0.00 | 0.00 | 38 | 1011.4 |
| 20260503180051 | 55 | 279 | 3.0 | 12.0 | 0.00 | 0.00 | 0.00 | 39 | 1011.7 |
| 20260503174548 | 54 | 347 | 3.0 | 8.0 | 0.00 | 0.00 | 0.00 | 39 | 1011.8 |
| 20260503173053 | 53 | 295 | 0.0 | 6.0 | 0.00 | 0.00 | 0.00 | 41 | 1012.1 |
| 20260503171543 | 52 | 311 | 2.0 | 7.0 | 0.00 | 0.00 | 0.00 | 40 | 1012.3 |
| 20260503081602 | 45 | 5 | 0.0 | 1.0 | 0.00 | 0.00 | 0.00 | 54 | 1011.0 |
| 20260503080106 | 45 | 329 | 0.0 | 1.0 | 0.00 | 0.00 | 0.00 | 54 | 1010.9 |
| 20260503071605 | 46 | 8 | 0.0 | 5.0 | 0.00 | 0.00 | 0.00 | 53 | 1010.9 |
| 20260503070112 | 45 | 347 | 0.0 | 1.0 | 0.00 | 0.00 | 0.00 | 53 | 1010.9 |
| 20260503060108 | 47 | 14 | 0.0 | 1.0 | 0.00 | 0.00 | 0.00 | 50 | 1011.1 |